Regional Weather Roundup
Issued by NWS Jackson, KY

Home | Current Version | Previous Version | Text Only | Print | Product List | Glossary Off
Versions: 1 2 3 4 5 6 7 8 9 10 11 12 13 14 15 16 17 18 19 20 21 22 23 24 25 26 27

000
ASUS43 KJKL 291510
RWRJKL

EAST KENTUCKY HOURLY WEATHER ROUNDUP
NATIONAL WEATHER SERVICE JACKSON KY
1100 AM EDT WED MAR 29 2017

NOTE: "FAIR" INDICATES FEW OR NO CLOUDS BELOW 12,000 FEET WITH
NO SIGNIFICANT WEATHER AND/OR OBSTRUCTIONS TO VISIBILITY.

* THESE REPORTS ARE NOT UNDER NWS QUALITY CONTROL AND MAY NOT
  REPORT WEATHER SUCH AS PRECIPITATION AND FOG.

KYZ079-080-083-085-087-088-110-112-115-119-120-291600
...EASTERN KENTUCKY...

CITY           SKY/WX    TMP DP  RH WIND       PRES   REMARKS
JACKSON        CLOUDY    54  48  80 CALM      30.15R
LONDON         MOSUNNY   61  49  64 E10       30.12R
SOMERSET*      CLOUDY    59  50  72 E8        30.12S
MONTICELLO*    CLOUDY    61  54  77 N6G22     30.11S
WILLIAMSBURG*  CLOUDY    63  55  77 NE6       30.11R
MIDDLESBORO*   SUNNY     63  52  68 CALM      30.11S
HARLAN APT*    MOSUNNY   61  50  67 CALM      30.12S
PIKE CO APT*   CLOUDY    55  51  87 N6        30.15R
BIG SANDY APT* CLOUDY    55  50  84 N3        30.17R
MOREHEAD APT*  CLOUDY    54  45  71 VRB3      30.19R
ASHLAND*       CLOUDY    52  45  76 E3        30.19R
$$

KYZ035-036-041-042-044-050-067-078-099-291600
...CENTRAL KENTUCKY...

CITY           SKY/WX    TMP DP  RH WIND       PRES   REMARKS
MT STERLING*   CLOUDY    52  46  82 E8        30.18S
FLEMING/MASON* CLOUDY    48  41  75 E6        30.20S
DANVILLE*      CLOUDY    54  48  82 E9        30.15S
LEXINGTON      CLOUDY    53  45  74 E12       30.16R
FRANKFORT      CLOUDY    52  44  74 NE8       30.15S
LOUISVILLE     CLOUDY    57  46  66 E10       30.13S
LEBANON*       CLOUDY    54  50  87 NE5       30.13S
GLASGOW*       SUNNY     61  53  73 E9        30.08S
BOWLING GREEN  SUNNY     63  54  72 E9        30.07F
$$

KYZ091>093-OHZ055-061-077-WVZ005-015-034-035-042-291600
...SOUTHERN OHIO/WEST VIRGINIA...

CITY           SKY/WX    TMP DP  RH WIND       PRES   REMARKS
COVINGTON      MOSUNNY   50  38  63 NE10      30.19R
COLUMBUS       PTSUNNY   51  40  65 E9        30.22S
DAYTON         PTSUNNY   47  39  74 E12       30.22S
WILMINGTON     CLOUDY    43  40  89 E10G18    30.20S
HUNTINGTON     CLOUDY    51  44  77 NE9       30.19R
CHARLESTON     CLOUDY    52  44  74 N3        30.18R
PINEVILLE*     CLOUDY    57  47  67 MISG      30.19R
BECKLEY        CLOUDY    50  44  80 VRB3      30.15S
BLUEFIELD      CLOUDY    52  44  74 NE5       30.15
LOGAN CO APT*  CLOUDY    52  46  82 CALM      30.16R
$$

VAZ002-007-008-TNZ017-027-036-066-071-291600
...SOUTHWEST VIRGINIA/EAST TENNESSEE...

CITY           SKY/WX    TMP DP  RH WIND       PRES   REMARKS
WISE*          CLOUDY    54  52  94 CALM      30.16R
JONESVILLE*      N/A     63  50  63 NE6       30.13S
ABINGDON*      SUNNY     61  50  67 NE6       30.12S
BRISTOL        MOSUNNY   65  52  62 NE8       30.11S
MORRISTOWN*    SUNNY     64  54  68 E9        30.08S
SEVIERVILLE*   SUNNY     63  52  67 E6        30.08S
KNOXVILLE      MOSUNNY   62  52  69 CALM      30.08R
LAFOLLETTE*    MOSUNNY   64  54  68 SE6       30.12S
OAK RIDGE      SUNNY     65  52  62 VRB3      30.09S
CROSSVILLE     SUNNY     57  52  83 E7        30.09S
NASHVILLE      MOSUNNY   64  54  69 SE5       30.06R
$$

...KEY TO REMARKS...
VSB - VISIBILITY IN MILES
WCI - WIND CHILL INDEX
HX  - HEAT INDEX

$$




USA.gov is the U.S. government's official web portal to all federal, state and local government web resources and services.